THOR ABLESTAR DEB, 652

Orbit data source: Space-Track

THOR ABLESTAR DEB, 652 is space debris in LEO originally from a launch on Thu, 29 Jun 1961 UTC launched from the Air Force Eastern Test Range (AFETR). Debris objects in space refer to the collection of defunct objects orbiting the Earth. Examples of debris include non-operational satellites, rocket bodies, and fragments generated from explosions, collisions, or faulty payload assembly.

Loading next visibility...
THOR ABLESTAR DEB details
Identifier
652, 1961-015HD
Orbit
LEO
Last TLE update12 hours ago
Origin
Flag of USUSAF SSD (US)
ManufacturerUnknown
MissionSpacecraft
Bus & MotorUnknown
MassUnknown
Launch date (UTC)
1961-06-29 (64 years ago)
Launch vehicleUnknown
Launch site
Air Force Eastern Test Range (AFETR)
Object type
Payload
Rocket body
Debris
Shape & HBRUnknown
Radar Cross SectionSmall (<0.1 m²)

Expand to show TLE details & history

TLE from 12 hours ago
0 THOR ABLESTAR DEB
1   652U 61015HD  25023.24590884  .00007028  00000-0  34936-2 0  9992
2   652  66.7081 333.2876 0074842 356.5545   3.5020 14.16105046221983
Epoch: 2025-01-23T05:54Z
Definitive object data (Epoch: 2025-01-23T05:54:06.523Z)
Latitude-0.00005°
Longitude121.93421°
Altitude786.735 km
Speed7.489 km/s
True Right ascension22h 13m 09s
True Declination0° 00' 00"
Sunlit
Object was in daylight at TLE epoch
Visualization TLE readout
Latitude-15.8002°
Longitude113.71975°
Altitude791.404 km
Speed7.485 km/s
Apparent Right ascension00h 40m 49s
Apparent Declination-52° 39' 42"
Sunlit
Object is in daylight
Visualization observer readout
Local Sidereal Time18:54:00
Azimuth136.234° SSE
Elevation-28.909°
Doppler factor1
Orbital elements
Apogee altitude890.939 km
Perigee altitude782.941 km
Semi-major axis7,215.077 km
Eccentricity0.0074842
Inclination66.7081°
RAAN333.2876°
Arg. of periapsis356.5545°
True anomaly3.55488°
Mean anomaly3.502°
Eccentric anomaly3.52839°
Mean motion3.54145 °/min
BSTAR0.0034936
Orbital period101.65 mins
Loading maneuver chart data...

THOR ABLESTAR DEB Visibility forecast

Observer location: undefined°, undefined

Span
Click to sort rows by Start time (UTC) header in descending order
Start Az.
Max El. time (UTC)
Max El. Az.
Max El.
End time (UTC)
End Az.
8 mins2025-01-23 21:16:14.584Z166.354° S2025-01-23 21:20:14.584Z114.725° SE26.261°2025-01-23 21:24:14.584Z56.014° ENE
8 mins2025-01-23 23:01:14.584Z247° WSW2025-01-23 23:05:14.584Z317.126° NNW31.331°2025-01-23 23:09:14.584Z11.446° NNE
8 mins2025-01-24 06:10:14.584Z358.916° N2025-01-24 06:14:14.584Z55.471° ENE25.808°2025-01-24 06:18:14.584Z104.717° ESE
10 mins2025-01-24 07:54:14.584Z315.251° NNW2025-01-24 07:58:14.584Z259.775° W36.093°2025-01-24 08:04:14.584Z175.237° S
|